If you wish to contribute or participate in the discussions about articles you are invited to join SKYbrary as a registered user

 Actions

Istanbul/Atatürk Airport

From SKYbrary Wiki

LTBA
Airport
ICAO: LTBA – IATA: IST
Summary
Name Istanbul/Atatürk Airport
Region Europe
Territory Turkey TR.gif
Location Yeşilköy, Istanbul
Serving Istanbul
Elevation 49.682 m
163 ft
163 ft49.682 m
Coordinates 40° 58' 28.63" N, 28° 48' 35.32" E
Runways
Designator Length Width Surface ROPS
5/23 2600 m8,530.184 ft
60 m196.85 ft
ASP yes/yes
17L/35R 3000 m9,842.52 ft
45 m147.638 ft
CON yes/yes
17R/35L 3000 m9,842.52 ft
45 m147.638 ft
CON yes/yes


METAR
Observation LTBA 180450Z 36010KT CAVOK 23/18 Q1010 NOSIG
Station Istanbul / Ataturk
Date/Time 18 July 2019 04:50:00
Wind direction 360°
Wind speed 10 kts
Lowest cloud amount clouds and visibility OK
Temperature 23°C
Dew point 18°C
Humidity 73%
QNH 1010 hPa
Weather condition n/a

Airport serving city of Istanbul. Until April 2019, it was the main international airport serving Istanbul.

Climatology

Dry-summer subtropical ”Mediterranean" climate (Köppen climate classification Csa)

Maps

Terrain

Loading map...

Airport Layout

Loading map...


Accidents & Serious Incidents at or in vicinity of LTBA

None on SKYbrary